[[{"header":{"parameterUnit":"m.s-1","parameterCategory":1,"la1":30.2991,"la2":30.254,"lo1":-89.0895,"lo2":-89.0444,"dy":0.0017,"dx":0.0017,"nx":28,"ny":28,"refTime":"2025-04-20T03:00:00:Z","depth":0,"parameterNumber":2,"parameterNumberName":"U-component_of_WINDS"},"data":[0,0,0,0,0,0,0,0,0,0,0,0,0,0,0,0,0,0,0,0,0,0,0,0,0,0,0,0,0,0,0,0,0,0,0,0,0,0,0,0,0,0,0,0,0,0,0,0,0,0,0,0,0,0,0,0,0,0,-3.341,-3.341,0,-3.3407,-3.3407,-3.3407,-3.335,-3.3349,-3.3348,-3.3346,-3.3342,-3.3343,-3.3344,0,0,0,0,0,0,0,0,0,0,0,0,0,-3.337,-3.3371,-3.341,-3.341,-3.341,-3.3407,-3.3407,-3.3407,-3.3351,-3.3349,-3.3347,-3.3346,-3.3341,-3.3343,-3.3344,0,0,0,0,0,0,0,0,0,0,0,0,0,-3.3379,-3.3371,-3.341,-3.3382,-3.3379,-3.3407,-3.3407,-3.3407,-3.3351,-3.3349,-3.3347,-3.3345,-3.3341,-3.3343,-3.3344,-3.3398,0,0,-3.335,-3.3351,0,0,0,0,0,0,0,0,-3.3379,-3.3381,-3.3386,-3.3384,-3.3381,-3.3377,-3.3391,-3.3404,-3.3352,-3.3362,-3.3346,-3.3344,-3.3355,-3.3356,-3.336,-3.3398,-3.3398,-3.335,-3.3351,-3.3352,-3.3352,0,0,0,0,0,0,0,-3.3378,-3.338,-3.3409,-3.3386,-3.3383,-3.337,-3.3369,-3.3393,-3.337,-3.3361,-3.3357,-3.3357,-3.3353,-3.3358,-3.3359,-3.3398,-3.335,-3.3352,-3.3353,-3.3353,-3.3482,-3.3484,0,0,0,0,0,0,-3.3381,-3.338,-3.3409,-3.3409,-3.3375,-3.3372,-3.3371,-3.338,-3.337,-3.3366,-3.3359,-3.3354,-3.3356,-3.3357,-3.3359,-3.3421,-3.3352,-3.3354,-3.3355,-3.3479,-3.3482,-3.3485,0,0,0,0,0,0,-3.3381,-3.3384,-3.3409,-3.3393,-3.3396,-3.3375,-3.3386,-3.3381,-3.3386,-3.3369,-3.3364,-3.3368,-3.3354,-3.3356,-3.3389,-3.342,-3.3354,-3.3356,-3.3477,-3.348,-3.3483,-3.3546,0,0,0,0,0,0,-3.338,-3.3384,-3.3404,-3.3394,-3.3397,-3.344,-3.3388,-3.3383,-3.3389,-3.3383,-3.3376,-3.3372,-3.3353,-3.3387,-3.3391,-3.3421,-3.3358,-3.3474,-3.3478,-3.3482,-3.3541,-3.3551,-3.356,0,0,0,0,0,-3.3378,-3.3422,-3.3406,-3.3409,-3.3421,-3.3441,-3.3443,-3.3419,-3.3392,-3.3412,-3.3401,-3.3373,-3.3417,-3.3391,-3.3395,-3.3426,-3.3472,-3.3477,-3.3482,-3.3537,-3.3549,-3.356,0,0,0,0,0,0,-3.3435,-3.342,-3.3402,-3.3443,-3.3444,-3.3432,-3.3456,-3.3433,-3.3441,-3.3436,-3.3406,-3.3405,-3.3443,-3.3438,-3.3409,-3.3478,-3.3439,-3.3446,-3.3479,-3.3491,-3.35,-3.3499,-3.3359,0,0,0,0,0,-3.3452,-3.347,-3.3456,-3.3494,-3.3496,-3.3476,-3.3484,-3.3467,-3.3466,-3.3466,-3.3457,-3.3458,-3.3472,-3.3482,-3.3494,-3.3541,-3.3538,-3.3565,-3.3575,-3.3582,-3.3587,-3.3612,-3.3623,-3.3502,-3.3502,-3.3502,0,0,-3.3488,-3.3482,-3.3495,-3.3505,-3.3504,-3.3523,-3.3477,-3.3499,-3.3512,-3.3469,-3.3499,-3.3494,-3.3493,-3.3534,-3.3551,-3.3531,-3.3621,-3.3589,-3.3595,-3.3596,-3.3619,-3.363,-3.364,-3.3505,-3.3505,-3.3504,0,0,-3.3562,-3.356,-3.3591,-3.3592,-3.3591,-3.3578,-3.3586,-3.3578,-3.3572,-3.3603,-3.3571,-3.3588,-3.3613,-3.3613,-3.3617,-3.3695,-3.3669,-3.37,-3.3748,-3.3772,-3.3782,-3.379,-3.3817,-3.3827,-3.3706,-3.3706,-3.3706,0,-3.3606,-3.3633,-3.361,-3.3635,-3.364,-3.3604,-3.3635,-3.3637,-3.364,-3.3645,-3.3623,-3.3654,-3.3651,-3.3691,-3.371,-3.3715,-3.3722,-3.3699,-3.3783,-3.3791,-3.3798,-3.3823,-3.3833,-3.3709,-3.3709,-3.3709,-3.3708,0,-3.3687,-3.3707,-3.3733,-3.3737,-3.3746,-3.3774,-3.3756,-3.3768,-3.3751,-3.374,-3.3772,-3.3768,-3.3778,-3.3788,-3.377,-3.3826,-3.3813,-3.3788,-3.3747,-3.3814,-3.3837,-3.3846,-3.3715,-3.3713,-3.3712,-3.3711,0,0,-3.3793,-3.3787,-3.3796,-3.3798,-3.3796,-3.3811,-3.3839,-3.385,-3.386,-3.3865,-3.3886,-3.391,-3.3886,-3.3891,-3.3874,-3.3896,-3.3957,-3.3867,-3.3867,-3.3883,-3.4017,-3.4034,-3.4046,-3.3941,-3.3943,-3.3945,-3.4016,0,-3.3863,-3.3909,-3.389,-3.3937,-3.3955,-3.3923,-3.3947,-3.3948,-3.394,-3.3955,-3.3946,-3.3963,-3.3931,-3.3934,-3.3954,-3.3945,-3.3983,-3.394,-3.396,-3.3961,-3.3958,-3.4058,-3.4076,-3.4144,-3.4026,-3.4027,-3.4028,0,-3.395,-3.3959,-3.4008,-3.4005,-3.4011,-3.4033,-3.4042,-3.4057,-3.4059,-3.4052,-3.4058,-3.4037,-3.4064,-3.4026,-3.4062,-3.4033,-3.4041,-3.4038,-3.404,-3.4039,-3.3996,-3.4058,-3.4166,-3.4175,-3.4042,-3.4041,-3.404,0,-3.4021,-3.4045,-3.4078,-3.4081,-3.4078,-3.4094,-3.4093,-3.4093,-3.4101,-3.411,-3.4115,-3.4127,-3.4133,-3.4142,-3.4125,-3.41,-3.4164,-3.4125,-3.4158,-3.4158,-3.417,-3.4169,-3.4279,-3.4179,-3.4179,-3.4179,-3.4179,0,-3.4099,-3.413,-3.411,-3.4129,-3.4164,-3.4143,-3.4177,-3.4173,-3.4174,-3.4192,-3.4166,-3.4184,-3.4162,-3.4178,-3.4165,-3.4196,-3.42,-3.4194,-3.419,-3.4195,-3.4196,-3.4198,-3.4192,-3.4182,-3.4181,-3.4181,-3.418,0,-3.4182,-3.417,-3.4203,-3.4198,-3.4198,-3.4223,-3.4219,-3.4237,-3.4229,-3.4253,-3.4257,-3.4244,-3.4262,-3.4247,-3.4264,-3.4255,-3.4297,-3.4287,-3.4296,-3.4292,-3.4326,-3.4322,-3.4438,-3.4452,-3.4346,-3.4347,-3.4348,0,-3.4232,-3.4255,-3.4254,-3.4265,-3.4266,-3.4284,-3.4293,-3.4274,-3.4285,-3.429,-3.4308,-3.4324,-3.4335,-3.4365,-3.4356,-3.437,-3.4359,-3.4399,-3.436,-3.4365,-3.4357,-3.4355,-3.4357,-3.4405,-3.4407,-3.4408,-3.4408,0,-3.4321,-3.4315,-3.4328,-3.4341,-3.4353,-3.4362,-3.4369,-3.4379,-3.4361,-3.4374,-3.4392,-3.4401,-3.4419,-3.4435,-3.4446,-3.4445,-3.4424,-3.4421,-3.4429,-3.4433,-3.4437,-3.4434,-3.4315,-3.4418,-3.4417,-3.4416,-3.4416,-3.4415,-3.4387,-3.4407,-3.4409,-3.4426,-3.443,-3.4438,-3.4455,-3.445,-3.4465,-3.4478,-3.4467,-3.4489,-3.4492,-3.4504,-3.4507,-3.4523,-3.4507,-3.4519,-3.4521,-3.4524,-3.4528,-3.4437,-3.4526,-3.4525,-3.4525,-3.4525,-3.4525,0,-3.4474,-3.4475,-3.4491,-3.4502,-3.4516,-3.4497,-3.4504,-3.4516,-3.4536,-3.4541,-3.4553,-3.4574,-3.459,-3.4585,-3.4599,-3.4613,-3.4604,-3.4617,-3.4615,-3.4615,-3.4543,-3.4534,-3.4625,-3.4625,-3.4625,-3.4625,-3.4625,-3.4625,-3.452,-3.4552,-3.4546,-3.458,-3.4581,-3.4602,-3.4608,-3.4615,-3.4619,-3.4644,-3.4658,-3.4655,-3.4655,-3.467,-3.4683,-3.4681,-3.4687,-3.4704,-3.4698,-3.463,-3.462,-3.461,-3.4602,-3.4706,-3.4706,-3.4768,-3.4769,-3.4769]},{"header":{"parameterUnit":"m.s-1","parameterCategory":1,"la1":30.2991,"la2":30.254,"lo1":-89.0895,"lo2":-89.0444,"dy":0.0017,"dx":0.0017,"nx":28,"ny":28,"refTime":"2025-04-20T03:00:00:Z","depth":0,"parameterNumber":3,"parameterNumberName":"V-component_of_WINDS"},"data":[0,0,0,0,0,0,0,0,0,0,0,0,0,0,0,0,0,0,0,0,0,0,0,0,0,0,0,0,0,0,0,0,0,0,0,0,0,0,0,0,0,0,0,0,0,0,0,0,0,0,0,0,0,0,0,0,0,0,3.252,3.252,0,3.2513,3.2513,3.2513,3.2497,3.2497,3.2497,3.2496,3.2487,3.2487,3.2487,0,0,0,0,0,0,0,0,0,0,0,0,0,3.2516,3.2516,3.252,3.252,3.2519,3.2513,3.2513,3.2513,3.2497,3.2497,3.2497,3.2496,3.2487,3.2487,3.2487,0,0,0,0,0,0,0,0,0,0,0,0,0,3.2514,3.2516,3.252,3.2511,3.251,3.2513,3.2513,3.2513,3.2498,3.2497,3.2497,3.2496,3.2487,3.2487,3.2487,3.2497,0,0,3.2487,3.2487,0,0,0,0,0,0,0,0,3.2514,3.2514,3.2512,3.2512,3.2511,3.2506,3.2508,3.2508,3.2498,3.2502,3.2496,3.2496,3.2493,3.2493,3.2492,3.2497,3.2496,3.2487,3.2487,3.2487,3.2487,0,0,0,0,0,0,0,3.2514,3.2515,3.2517,3.2512,3.2511,3.2507,3.2506,3.2508,3.25,3.2502,3.2501,3.25,3.2493,3.2492,3.2492,3.2496,3.2487,3.2487,3.2487,3.2487,3.251,3.2511,0,0,0,0,0,0,3.2516,3.2515,3.2517,3.2517,3.2511,3.2507,3.2506,3.2508,3.25,3.2499,3.2501,3.25,3.2493,3.2492,3.2492,3.2504,3.2487,3.2487,3.2487,3.2509,3.251,3.2511,0,0,0,0,0,0,3.2516,3.2517,3.2517,3.2516,3.2515,3.2508,3.251,3.2508,3.2508,3.25,3.2498,3.2502,3.2492,3.2492,3.2497,3.2504,3.2487,3.2487,3.2509,3.251,3.251,3.2529,0,0,0,0,0,0,3.2516,3.2517,3.2521,3.2516,3.2516,3.2523,3.251,3.2508,3.2508,3.2507,3.2501,3.2499,3.2492,3.2497,3.2497,3.2504,3.2487,3.2508,3.2509,3.251,3.2528,3.2531,3.2533,0,0,0,0,0,3.2516,3.2525,3.2521,3.2521,3.2521,3.2523,3.2523,3.2516,3.2509,3.2513,3.2508,3.2499,3.2503,3.2497,3.2497,3.2504,3.2508,3.2509,3.251,3.2527,3.253,3.2533,0,0,0,0,0,0,3.2529,3.2524,3.252,3.2528,3.2526,3.2521,3.2525,3.2519,3.2519,3.2517,3.2507,3.2506,3.2512,3.2508,3.2502,3.2515,3.2504,3.2505,3.2517,3.252,3.2522,3.2523,3.2487,0,0,0,0,0,3.2534,3.2537,3.2532,3.2539,3.2539,3.2533,3.2533,3.2528,3.2526,3.2525,3.252,3.2517,3.2518,3.2519,3.2519,3.2528,3.2526,3.2533,3.2535,3.2537,3.2538,3.2544,3.2547,3.2515,3.2515,3.2515,0,0,3.2541,3.2539,3.2542,3.2542,3.2541,3.2544,3.2532,3.2536,3.2538,3.2525,3.253,3.2527,3.2523,3.253,3.2533,3.2527,3.2547,3.2539,3.2541,3.2541,3.2546,3.2549,3.2552,3.2516,3.2516,3.2515,0,0,3.2558,3.2557,3.2564,3.2563,3.2561,3.2557,3.2559,3.2555,3.2553,3.2558,3.2548,3.2551,3.2552,3.255,3.255,3.2568,3.256,3.2569,3.2582,3.2587,3.259,3.2592,3.26,3.2602,3.257,3.257,3.257,0,3.2568,3.2574,3.2567,3.2573,3.2574,3.2564,3.2571,3.257,3.2568,3.2568,3.2562,3.2565,3.2562,3.2569,3.2574,3.2574,3.2576,3.2569,3.259,3.2592,3.2594,3.2601,3.2604,3.2571,3.2571,3.2571,3.2571,0,3.2587,3.2591,3.2596,3.2597,3.2598,3.2604,3.2599,3.2601,3.2596,3.2592,3.2598,3.2595,3.2595,3.2596,3.259,3.2603,3.26,3.2592,3.2581,3.2599,3.2605,3.2608,3.2572,3.2572,3.2572,3.2572,0,0,3.261,3.2609,3.2611,3.2612,3.261,3.2613,3.2619,3.2621,3.2623,3.2622,3.2627,3.263,3.2624,3.2623,3.2617,3.2622,3.2639,3.2614,3.2614,3.2619,3.2654,3.266,3.2663,3.2634,3.2634,3.2634,3.2654,0,3.2626,3.2638,3.2633,3.2644,3.2649,3.264,3.2646,3.2645,3.2642,3.2645,3.2642,3.2644,3.2635,3.2635,3.264,3.2636,3.2645,3.2634,3.2638,3.2638,3.2639,3.2666,3.2672,3.2691,3.2657,3.2657,3.2658,0,3.2647,3.2649,3.2662,3.2661,3.2663,3.2668,3.267,3.2673,3.2673,3.267,3.2671,3.2664,3.267,3.266,3.2668,3.266,3.2661,3.266,3.266,3.266,3.2649,3.2668,3.2697,3.27,3.2661,3.2661,3.2661,0,3.2664,3.267,3.2679,3.268,3.2679,3.2683,3.2683,3.2682,3.2684,3.2686,3.2687,3.2688,3.2689,3.2691,3.2685,3.2678,3.2694,3.2683,3.2692,3.2692,3.2696,3.2696,3.2726,3.2696,3.2696,3.2696,3.2696,0,3.2683,3.2691,3.2687,3.2692,3.2701,3.2696,3.2705,3.2704,3.2704,3.2708,3.27,3.2705,3.2697,3.2701,3.2696,3.2704,3.2704,3.2702,3.2701,3.2703,3.2704,3.2704,3.2703,3.2697,3.2697,3.2696,3.2696,0,3.2703,3.2701,3.271,3.271,3.271,3.2717,3.2716,3.2721,3.2719,3.2725,3.2726,3.2722,3.2726,3.2721,3.2723,3.2721,3.2732,3.2728,3.2732,3.2731,3.2742,3.2741,3.2774,3.2778,3.2745,3.2745,3.2745,0,3.2716,3.2722,3.2724,3.2727,3.2728,3.2733,3.2736,3.2731,3.2734,3.2735,3.274,3.2744,3.2747,3.2754,3.2751,3.2753,3.275,3.2761,3.275,3.2753,3.2751,3.2751,3.2752,3.2763,3.2764,3.2764,3.2764,0,3.2739,3.2738,3.2743,3.2748,3.2751,3.2754,3.2757,3.276,3.2755,3.2759,3.2764,3.2766,3.2771,3.2775,3.2777,3.2776,3.277,3.2768,3.2771,3.2773,3.2776,3.2775,3.2739,3.2767,3.2767,3.2767,3.2767,3.2767,3.2756,3.2762,3.2765,3.277,3.2772,3.2775,3.2781,3.278,3.2784,3.2789,3.2785,3.2792,3.2792,3.2795,3.2795,3.28,3.2795,3.2798,3.2799,3.28,3.2802,3.2775,3.28,3.28,3.28,3.28,3.28,0,3.2779,3.2781,3.2787,3.2791,3.2796,3.2792,3.2795,3.2799,3.2805,3.2807,3.2811,3.2817,3.2821,3.2819,3.2823,3.2828,3.2825,3.2829,3.2828,3.2829,3.2806,3.2804,3.2831,3.2831,3.2831,3.2831,3.2831,3.2831,3.2792,3.2802,3.2802,3.2813,3.2815,3.2822,3.2825,3.2827,3.2829,3.2837,3.2842,3.2841,3.2841,3.2846,3.285,3.2849,3.2851,3.2856,3.2854,3.2833,3.283,3.2827,3.2825,3.2856,3.2856,3.2877,3.2877,3.2877]}]]